sat.trackr.live / text

‹ back to catalog

SKYKRAFT-1C

NORAD 55061 · 2023-001BE

PAYLOAD ACTIVE UNKNOWN

§ Identity

Operator
Country
AUS
Launch date
2023-01-03
Launch site
AFETR
Launch vehicle
Mass (kg)
RCS (m²)

External: N2YO · Heavens-Above · Gunter

§ Orbital elements

Epoch: 2026-05-25T02:32:59.555040Z

Period
94.44 min
Inclination
97.3207°
Eccentricity
0.0009366
Mean motion
15.24827167 rev/d
Perigee alt
484.9 km
Apogee alt
497.7 km
Semi-major
6,869.4 km
B*
1.1332e-4
RAAN
199.2739°
Arg perigee
220.7392°
Mean anomaly
139.3147°
Rev number
18,796

§ Raw data

SKYKRAFT-1C1 55061U 23001BE  26145.10624485  .00002745  00000+0  11332-3 0  99912 55061  97.3207 199.2739 0009366 220.7392 139.3147 15.24827167187968

JSON: /api/v1/satellites/55061 · /tle

For live sub-satellite position, see the globe view (requires WebGL).

§ Visibility from observer

Set your observer location to see the next 7 days of passes ≥ 10°. The values pass through the URL so the page stays shareable.

No JS? Fill the form by hand. The geolocation button needs JavaScript.